Regional Weather Roundup
Issued by NWS

Home | Current Version | Previous Version | Text Only | Print | Product List | Glossary Off
Versions: 1 2 3 4 5 6 7 8 9 10 11 12 13 14 15 16 17 18 19 20 21 22 23 24 25 26 27 28 29 30 31 32 33 34 35 36 37 38 39 40 41 42 43 44 45 46 47 48 49 50

000
ASUS45 KBOI 240710
RWRID

IDAHO REGIONAL WEATHER ROUNDUP
NATIONAL WEATHER SERVICE BOISE ID
100 AM MDT SUN JUL 24 2016

NOTE: "FAIR" INDICATES FEW OR NO CLOUDS BELOW 12000 FEET
WITH NO SIGNIFICANT WEATHER AND/OR OBSTRUCTIONS TO VISIBILITY

IDZ012-014-240800-
SOUTHWEST IDAHO


CITY           SKY/WX    TMP DP  RH WIND       PRES   REMARKS
BOISE          CLEAR     69  37  30 NW3       30.05S
CALDWELL       NOT AVBL
MOUNTAIN HOME  CLEAR     66  31  26 N5        30.05S
$$

IDZ016-017-240800-
SOUTHCENTRAL IDAHO


CITY           SKY/WX    TMP DP  RH WIND       PRES   REMARKS
BURLEY         CLEAR     60  34  37 SW9       30.10R
JEROME         CLEAR     61  33  35 S7        30.11R
TWIN FALLS     CLEAR     59  26  28 S13       30.11S
$$

IDZ019>023-240800-
SOUTHEAST IDAHO


CITY           SKY/WX    TMP DP  RH WIND       PRES   REMARKS
IDAHO FALLS    CLEAR     67  31  26 S14       30.12R
POCATELLO      CLEAR     68  25  19 SW12      30.12S
REXBURG        CLEAR     66  28  24 S7        30.13R
$$

IDZ006-010-011-018-031-032-240800-
CENTRAL IDAHO MOUNTAINS


CITY           SKY/WX    TMP DP  RH WIND       PRES   REMARKS
MCCALL         CLEAR     60  40  47 N7        30.21S
HAILEY         CLEAR     57  34  41 NW9       30.17R
STANLEY          N/A     45  30  55 S5        30.28R
SALMON         CLEAR     59  43  55 CALM      30.15R
CHALLIS        CLEAR     64  35  34 NW10      30.18R
$$

IDZ002-004-006-007-026-240800-
NORTHERN IDAHO


CITY           SKY/WX    TMP DP  RH WIND       PRES   REMARKS
LEWISTON       CLEAR     68  41  37 S7        30.08S
LOWELL           N/A     60  51  72 N3        30.14R
COEUR D`ALENE  CLEAR     57  48  72 CALM      30.11S
MULLAN PASS    CLEAR     49  40  71 CALM      30.27R
$$



USA.gov is the U.S. government's official web portal to all federal, state and local government web resources and services.